Location: Dyersburg
(36.0438°N, 89.3789°W)
Time: 04:39:01
(UTC+00:00)

Vanguard 2 - All Passes

Search period start: 27 February 2020 00:00
Search period end: 08 March 2020 00:00
Orbit: 552 x 2939 km, 32.9° (Epoch: 26 February)

Date Brightness Start Highest point End Pass type
(mag) Time Alt. Az. Time Alt. Az. Time Alt. Az.
27 Feb - 05:47:07 10° SSW 05:52:41 35° SSE 06:01:19 10° E visible
27 Feb - 07:53:37 10° WSW 08:01:28 72° S 08:14:54 10° E visible
27 Feb - 10:01:42 10° W 10:12:13 74° S 10:28:43 10° ESE visible
27 Feb - 12:11:02 10° W 12:23:52 51° SSW 12:40:40 10° SE daylight
27 Feb - 14:23:32 10° W 14:35:13 24° SW 14:47:49 10° S daylight
28 Feb - 06:04:25 10° SW 06:10:14 45° SSE 06:19:42 10° E visible
28 Feb - 08:11:23 10° WSW 08:19:25 75° S 08:33:10 10° E visible
28 Feb - 10:19:37 10° W 10:30:17 68° SSW 10:46:45 10° ESE visible
28 Feb - 12:29:16 10° W 12:41:48 43° SSW 12:57:49 10° SE daylight
28 Feb - 14:43:37 10° WSW 14:52:56 18° SW 15:02:47 10° S daylight
29 Feb - 04:17:20 10° S 04:20:28 16° SE 04:24:20 10° ESE night (unlit)
29 Feb - 06:21:55 10° SW 06:27:55 55° SSE 06:37:58 10° E visible
29 Feb - 08:29:13 10° W 08:37:26 76° S 08:51:25 10° E visible
29 Feb - 10:37:34 10° W 10:48:18 61° SSW 11:04:35 10° ESE visible
29 Feb - 12:47:42 10° W 12:59:41 35° SSW 13:14:35 10° SSE daylight
29 Feb - 15:06:28 10° WSW 15:10:41 11° SW 15:15:01 10° SSW daylight
01 Mar - 04:33:49 10° SSW 04:37:49 23° SE 04:43:19 10° E night (unlit)
01 Mar - 06:39:33 10° WSW 06:45:43 64° SSE 06:56:11 10° E visible
01 Mar - 08:47:04 10° W 08:55:26 73° S 09:09:36 10° ESE visible
01 Mar - 10:55:35 10° W 11:06:18 53° SSW 11:22:13 10° SE visible
01 Mar - 13:06:31 10° W 13:17:34 27° SW 13:30:51 10° SSE daylight
02 Mar - 04:50:51 10° SSW 04:55:18 32° SSE 05:01:49 10° E night (unlit)
02 Mar - 06:57:17 10° WSW 07:03:35 70° S 07:14:24 10° E visible
02 Mar - 09:04:57 10° W 09:13:27 68° S 09:27:42 10° ESE visible
02 Mar - 11:13:42 10° W 11:24:17 44° SSW 11:39:33 10° SE visible
02 Mar - 13:26:00 10° WSW 13:35:25 20° SW 13:46:21 10° S daylight
03 Mar - 05:08:11 10° SW 05:12:54 42° SSE 05:20:06 10° E night (unlit)
03 Mar - 07:15:04 10° W 07:21:30 73° S 07:32:36 10° E visible
03 Mar - 09:22:51 10° W 09:31:26 61° SSW 09:45:39 10° ESE visible
03 Mar - 11:32:00 10° W 11:42:14 36° SSW 11:56:31 10° SSE visible
03 Mar - 13:46:57 10° WSW 13:53:19 14° SW 14:00:18 10° SSW daylight
04 Mar - 03:20:57 10° S 03:23:14 14° SE 03:25:50 10° ESE night (unlit)
04 Mar - 05:25:44 10° WSW 05:30:36 53° SSE 05:38:17 10° E night (unlit)
04 Mar - 07:32:52 10° W 07:39:27 72° S 07:50:47 10° ESE visible
04 Mar - 09:40:47 10° W 09:49:26 53° SSW 10:03:24 10° SE visible
04 Mar - 11:50:35 10° W 12:00:13 28° SSW 12:13:02 10° SSE visible
05 Mar - 03:37:27 10° SSW 03:40:43 21° SSE 03:44:46 10° E night (unlit)
05 Mar - 05:43:24 10° WSW 05:48:23 61° SSE 05:56:26 10° E night (unlit)
05 Mar - 07:50:43 10° W 07:57:24 67° S 08:08:54 10° ESE visible
05 Mar - 09:58:49 10° W 10:07:25 45° SSW 10:20:53 10° SE visible
05 Mar - 12:09:41 10° WSW 12:18:11 21° SSW 12:28:53 10° S daylight
06 Mar - 03:54:33 10° SW 03:58:17 30° SSE 04:03:10 10° E night (unlit)
06 Mar - 06:01:09 10° WSW 06:06:15 67° S 06:14:35 10° E night (unlit)
06 Mar - 08:08:34 10° W 08:15:21 61° S 08:26:53 10° ESE visible
06 Mar - 10:17:00 10° W 10:25:24 36° SSW 10:38:03 10° SE visible
06 Mar - 12:29:53 10° WSW 12:36:11 15° SW 12:43:31 10° S daylight
07 Mar - 04:11:58 10° SW 04:15:56 40° SSE 04:21:22 10° E night (unlit)
07 Mar - 06:18:56 10° W 06:24:08 68° S 06:32:42 10° E night (unlit)
07 Mar - 08:26:28 10° W 08:33:18 52° SSW 08:44:43 10° ESE visible
07 Mar - 10:35:26 10° W 10:43:25 28° SSW 10:54:45 10° SSE visible
